102 visiteurs
Prévisions de votre ville :
Vigilance : 4 départements Mise à jour le 17/10/2018 à 18:01 - Voir la carte

Paris Roissy CDG (95380) le 18/10/2018 à 02:00 Choisir station

13.5°C 85 % N Rafales 35 km/h
Vit. moyenne 17 kmh/h

Relevés météo quotidiens pour la station de :

UTC
S: Synop
M: Metar
Loc T°C
(°C)
Td
(°C)
HR
(%)
Vis
(km)
Néb
(octa)
Vent
(km/h)
Pression
(mb)
Précipitations
(mm)
Temps
              MOY
10 min
DIR RAF 1h MESURE VAR SUR 3h    
S 00 h 02h 15.8 13.8 88 20 /8 19 37 1018.7 +1.1/3h 0.0/6h - 0.0/3h
S 01 h 03h 15.7 13.7 88 20 /8 15 37 1019.1 +1.0/3h 0.0/1h
S 02 h 04h 15.8 14.0 89 20 /8 22 41 1018.6 0.0/3h 0.0/1h
S 03 h 05h 15.8 14.0 89 20 /8 11 24 1019.0 +0.3/3h 0.0/3h -
S 04 h 06h 15.7 13.9 89 20 /8 9 20 1019.6 +0.4/3h 0.0/1h -
S 05 h 07h 15.6 14.0 90 20 /8 7 20 1020.1 +1.4/3h 0.0/1h -
S 06 h 08h 15.6 14.0 90 20 /8 20 41 1020.5 +1.3/3h 0.0/12h - 0.0/3h - 0.0/24h
S 07 h 09h 15.7 14.1 90 20 /8 20 39 1021.3 +1.6/3h 0.0/1h
S 08 h 10h 16.1 14.3 89 20 /8 24 41 1021.6 +1.5/3h 0.0/1h
S 09 h 11h 15.9 13.9 88 20 /8 13 20 1022.5 +1.9/3h 0.0/3h -
S 10 h 12h 16.8 13.9 83 20 /8 15 22 1022.4 +1.3/3h 0.0/1h -
S 11 h 13h 17.0 13.9 82 20 /8 26 46 1022.1 +0.7/3h 0.0/1h
S 12 h 14h 17.2 13.9 81 20 /8 26 46 1022.1 0.0/3h 0.0/6h - 0.0/3h
S 13 h 15h 16.8 14.3 85 20 /8 24 43 1021.9 -0.5/3h 0.0/1h
S 14 h 16h 16.6 14.4 87 20 /8 24 41 1021.9 -0.3/3h 0.0/1h
S 15 h 17h 16.5 14.3 87 20 /8 13 22 1021.9 -0.3/3h 0.0/3h -
S 16 h 18h 16.5 14.5 88 20 /8 9 17 1022.0 +0.1/3h 0.0/1h -
S 17 h 19h 16.4 14.4 88 20 /8 20 33 1022.3 +0.3/3h 0.0/1h
S 18 h 20h 16.2 14.2 88 20 /8 20 31 1022.9 +0.8/3h 0.0/12h - 0.0/3h
S 19 h 21h 15.9 14.3 90 20 /8 17 33 1022.9 +0.6/3h 0.0/1h
S 20 h 22h 15.9 14.3 90 20 /8 20 33 1023.0 +0.5/3h 0.0/1h
S 21 h 23h 15.7 14.2 91 20 /8 7 19 1023.0 0.0/3h 0.0/3h -
S 22 h 00h 15.7 14.1 90 20 /8 9 13 1022.8 -0.1/3h 0.0/1h -
S 23 h 01h 15.7 14.1 90 20 /8 11 17 1022.5 -0.5/3h 0.0/1h -
evolution des temperatures
cumul des precipitations
vent moyen et rafales
pression atmospherique

Un tiret (-) signifie que les données ne sont pas disponibles.

Passez la souris sur les pictos temps pour avoir plus de précisions. Passez les flèches sur l'icône de la direction du vent pour voir la direction précise en degrés.

Les données de l'heure en cours sont disponibles à partir de H+15 minutes.


S signifie station Synop, plus complète qu'une station Metar (M). Il y a +1h de différence entre l'heure UTC et l'heure légale en hiver et +2h en été.

Td est la mesure du point de rosée.

HR est l'humidité relative/p>

Vis est la visibilité

Néb est la nébulosité du ciel (couverture nuageuse) exprimée en octas (de 0/8 à 8/8).

Vent moy 10 min donne le vent moyen sur les 10 minutes qui précèdent le relevé.

Vent raf 1h donne la rafale maximale mesurée dans l'heure qui précède le relevé.


Les données les plus anciennes remontent à avril 2014.

Les données présentées sur cette page proviennent des stations météo officielles. Les relevés sont effectués aux normes en vigueur (anémomètre à 10m de haut, thermomètre sous abri normalisé à 2m du sol...)

Météo 60 décline toute responsabilité en cas d'absence de données, d'erreurs, de mauvaise utilisation ou interprétation et n'est pas habilité à fournir des certificats intempéries.